QPF
0.00 0.00 0.00 0.00 0.00 0.00 0.00 0.00 0.00 0.00 0.00 0.00 0.00 0.00 0.00 0.01 0.01 0.01 0.03 0.05 0.08 0.10 0.10 0.09 0.08 0.06 0.04 0.04 0.13 0.33 0.50 0.63 0.77 0.82 0.73 0.63 0.54 0.45 0.35 0.24 0.19 0.14 0.09 0.06
0.00 0.00 0.00 0.00 0.00 0.00 0.00 0.00 0.00 0.00 0.00 0.00 0.00 0.00 0.00 0.01 0.01 0.02 0.03 0.04 0.05 0.05 0.05 0.05 0.04 0.02 0.01 0.01 0.06 0.15 0.25 0.31 0.33 0.33 0.33 0.32 0.29 0.26 0.20 0.16 0.15 0.12 0.08 0.05
0.00 0.00 0.00 0.00 0.00 0.00 0.00 0.00 0.00 0.00 0.00 0.00 0.00 0.00 0.00 0.00 0.00 0.01 0.02 0.02 0.02 0.03 0.03 0.03 0.01 0.00 0.00 0.00 0.01 0.02 0.04 0.08 0.10 0.12 0.19 0.19 0.18 0.17 0.14 0.13 0.13 0.10 0.07 0.05
0.00 0.00 0.00 0.00 0.00 0.00 0.00 0.00 0.00 0.00 0.00 0.00 0.00 0.00 0.00 0.00 0.00 0.01 0.01 0.02 0.03 0.02 0.02 0.01 0.01 0.00 0.00 0.00 0.01 0.01 0.03 0.05 0.06 0.07 0.10 0.09 0.09 0.11 0.12 0.12 0.11 0.11 0.09 0.07
0.00 0.00 0.00 0.00 0.00 0.00 0.00 0.00 0.00 0.00 0.00 0.00 0.00 0.01 0.01 0.00 0.01 0.01 0.01 0.02 0.02 0.03 0.02 0.01 0.01 0.01 0.00 0.00 0.01 0.01 0.02 0.03 0.04 0.04 0.05 0.05 0.06 0.07 0.09 0.11 0.12 0.14 0.14 0.12
0.00 0.00 0.00 0.00 0.00 0.00 0.00 0.00 0.00 0.00 0.00 0.00 0.00 0.01 0.01 0.01 0.01 0.01 0.01 0.01 0.02 0.01 0.01 0.00 0.00 0.00 0.00 0.00 0.01 0.01 0.01 0.01 0.02 0.02 0.02 0.03 0.04 0.05 0.07 0.09 0.10 0.12 0.14 0.14
0.00 0.00 0.00 0.00 0.00 0.01 0.01 0.00 0.00 0.00 0.00 0.00 0.01 0.01 0.01 0.01 0.01 0.01 0.01 0.00 0.00 0.01 0.00 0.00 0.00 0.00 0.00 0.00 0.00 0.00 0.00 0.00 0.00 0.01 0.01 0.01 0.01 0.02 0.03 0.04 0.06 0.08 0.10 0.11
0.00 0.01 0.00 0.01 0.01 0.01 0.01 0.00 0.00 0.01 0.01 0.01 0.02 0.02 0.02 0.01 0.01 0.01 0.00 0.00 0.00 0.00 0.00 0.00 0.00 0.00 0.00 0.00 0.00 0.00 0.00 0.00 0.00 0.00 0.00 0.00 0.00 0.00 0.00 0.00 0.01 0.02 0.04 0.05
0.00 0.00 0.00 0.00 0.01 0.01 0.01 0.01 0.01 0.01 0.02 0.02 0.03 0.03 0.02 0.01 0.00 0.00 0.00 0.00 0.00 0.00 0.00 0.00 0.00 0.00 0.00 0.00 0.00 0.00 0.00 0.00 0.00 0.00 0.00 0.00 0.00 0.00 0.00 0.00 0.00 0.00 0.01 0.01
0.00 0.00 0.00 0.00 0.00 0.00 0.00 0.00 0.01 0.01 0.02 0.02 0.03 0.04 0.03 0.01 0.00 0.00 0.01 0.01 0.00 0.00 0.00 0.00 0.00 0.00 0.00 0.00 0.00 0.00 0.00 0.00 0.00 0.00 0.00 0.00 0.00 0.00 0.00 0.00 0.00 0.00 0.00 0.00
0.00 0.00 0.00 0.00 0.00 0.00 0.00 0.00 0.01 0.01 0.02 0.02 0.02 0.02 0.01 0.00 0.00 0.01 0.00 0.00 0.00 0.00 0.00 0.00 0.00 0.00 0.00 0.00 0.00 0.00 0.00 0.00 0.00 0.00 0.00 0.00 0.00 0.00 0.00 0.00 0.00 0.00 0.00 0.00
0.00 0.00 0.00 0.00 0.00 0.00 0.00 0.00 0.00 0.01 0.01 0.01 0.00 0.00 0.00 0.00 0.00 0.00 0.00 0.00 0.00 0.00 0.00 0.00 0.00 0.00 0.00 0.00 0.00 0.00 0.00 0.00 0.00 0.00 0.00 0.00 0.00 0.00 0.00 0.00 0.00 0.00 0.00 0.00
0.00 0.00 0.00 0.00 0.00 0.00 0.00 0.00 0.00 0.01 0.00 0.00 0.00 0.00 0.00 0.00 0.00 0.00 0.00 0.00 0.00 0.00 0.00 0.00 0.00 0.00 0.00 0.00 0.00 0.00 0.00 0.00 0.00 0.00 0.00 0.00 0.00 0.00 0.00 0.00 0.00 0.00 0.00 0.00
0.00 0.00 0.00 0.00 0.00 0.00 0.00 0.00 0.00 0.00 0.00 0.00 0.00 0.00 0.00 0.00 0.00 0.00 0.00 0.00 0.00 0.00 0.00 0.00 0.00 0.00 0.00 0.00 0.00 0.00 0.00 0.00 0.00 0.00 0.00 0.00 0.00 0.00 0.00 0.00 0.00 0.00 0.00 0.00
0.00 0.00 0.00 0.00 0.00 0.00 0.00 0.00 0.00 0.00 0.00 0.00 0.00 0.00 0.00 0.00 0.00 0.00 0.00 0.00 0.00 0.00 0.00 0.00 0.00 0.00 0.00 0.00 0.00 0.00 0.00 0.00 0.00 0.00 0.00 0.00 0.00 0.00 0.00 0.00 0.00 0.00 0.00 0.00
0.00 0.00 0.00 0.00 0.00 0.00 0.00 0.00 0.00 0.00 0.00 0.00 0.00 0.00 0.00 0.00 0.00 0.00 0.00 0.00 0.00 0.00 0.00 0.00 0.00 0.00 0.00 0.00 0.00 0.00 0.00 0.00 0.00 0.00 0.00 0.00 0.00 0.00 0.00 0.00 0.00 0.00 0.00 0.00
0.00 0.00 0.00 0.00 0.00 0.00 0.00 0.00 0.00 0.00 0.00 0.00 0.00 0.00 0.00 0.00 0.00 0.00 0.00 0.00 0.00 0.00 0.00 0.00 0.00 0.00 0.00 0.00 0.00 0.00 0.00 0.00 0.00 0.00 0.00 0.01 0.01 0.01 0.01 0.01 0.01 0.01 0.01 0.01
0.00 0.00 0.00 0.00 0.00 0.00 0.00 0.00 0.00 0.00 0.00 0.00 0.00 0.00 0.00 0.00 0.00 0.00 0.00 0.00 0.00 0.00 0.00 0.00 0.00 0.00 0.00 0.00 0.00 0.00 0.00 0.00 0.00 0.00 0.01 0.01 0.02 0.03 0.03 0.04 0.03 0.03 0.02 0.02
0.00 0.00 0.00 0.00 0.00 0.00 0.00 0.00 0.00 0.00 0.00 0.00 0.00 0.00 0.00 0.00 0.00 0.00 0.00 0.00 0.00 0.00 0.00 0.00 0.00 0.00 0.00 0.00 0.00 0.00 0.00 0.00 0.00 0.01 0.01 0.02 0.03 0.05 0.06 0.07 0.06 0.06 0.05 0.04
0.00 0.00 0.00 0.00 0.00 0.00 0.00 0.00 0.00 0.00 0.00 0.00 0.00 0.00 0.00 0.00 0.00 0.00 0.00 0.00 0.00 0.00 0.00 0.00 0.00 0.00 0.00 0.00 0.00 0.00 0.00 0.00 0.01 0.01 0.02 0.03 0.05 0.08 0.10 0.11 0.11 0.10 0.08 0.07
0.00 0.00 0.00 0.00 0.00 0.00 0.00 0.00 0.00 0.00 0.00 0.00 0.00 0.00 0.00 0.00 0.00 0.00 0.00 0.00 0.00 0.00 0.00 0.00 0.00 0.00 0.00 0.00 0.00 0.00 0.00 0.01 0.01 0.01 0.02 0.03 0.05 0.08 0.11 0.13 0.15 0.14 0.12 0.08
0.00 0.00 0.00 0.00 0.00 0.00 0.00 0.00 0.00 0.00 0.00 0.00 0.00 0.00 0.00 0.00 0.00 0.00 0.00 0.00 0.00 0.00 0.00 0.00 0.00 0.00 0.00 0.00 0.00 0.01 0.01 0.01 0.01 0.01 0.02 0.02 0.04 0.06 0.08 0.10 0.12 0.15 0.16 0.14
0.00 0.00 0.00 0.00 0.00 0.00 0.00 0.00 0.00 0.00 0.00 0.00 0.00 0.00 0.00 0.00 0.00 0.00 0.00 0.00 0.00 0.00 0.00 0.00 0.00 0.00 0.00 0.00 0.00 0.01 0.01 0.01 0.01 0.01 0.02 0.03 0.04 0.05 0.07 0.08 0.10 0.11 0.11 0.11
0.00 0.00 0.00 0.00 0.00 0.00 0.00 0.00 0.00 0.00 0.00 0.00 0.00 0.00 0.00 0.00 0.00 0.00 0.00 0.00 0.00 0.00 0.00 0.00 0.00 0.00 0.00 0.00 0.01 0.01 0.01 0.01 0.01 0.02 0.02 0.03 0.04 0.06 0.07 0.09 0.10 0.11 0.11 0.09
0.00 0.00 0.00 0.00 0.00 0.00 0.00 0.00 0.00 0.00 0.00 0.00 0.00 0.00 0.00 0.00 0.00 0.00 0.00 0.00 0.00 0.00 0.00 0.00 0.00 0.00 0.01 0.01 0.01 0.01 0.01 0.01 0.02 0.02 0.03 0.03 0.04 0.05 0.06 0.07 0.09 0.11 0.11 0.10
0.00 0.00 0.00 0.00 0.00 0.00 0.00 0.00 0.00 0.00 0.00 0.00 0.00 0.00 0.00 0.00 0.00 0.00 0.00 0.00 0.00 0.00 0.00 0.00 0.00 0.01 0.01 0.01 0.01 0.01 0.01 0.02 0.02 0.03 0.03 0.03 0.03 0.03 0.04 0.05 0.06 0.06 0.07 0.07
MSLP
1011.35 1012.06 1012.52 1012.74 1012.79 1012.78 1012.82 1013.01 1013.38 1013.92 1014.59 1015.29 1015.91 1016.36 1016.61 1016.61 1016.41 1016.06 1015.65 1015.23 1014.87 1014.57 1014.34 1014.16 1013.97 1013.76 1013.50 1013.18 1012.82 1012.42 1012.02 1011.64 1011.28 1010.93 1010.60 1010.28 1009.96 1009.64 1009.34 1009.08 1008.89 1008.80 1008.81 1008.93
1011.73 1012.29 1012.59 1012.67 1012.64 1012.60 1012.68 1012.96 1013.47 1014.16 1014.97 1015.78 1016.47 1016.96 1017.19 1017.15 1016.91 1016.52 1016.07 1015.64 1015.28 1015.00 1014.80 1014.63 1014.44 1014.22 1013.92 1013.56 1013.15 1012.72 1012.31 1011.92 1011.58 1011.28 1010.99 1010.70 1010.39 1010.06 1009.72 1009.39 1009.12 1008.93 1008.85 1008.89
1011.91 1012.28 1012.41 1012.36 1012.26 1012.23 1012.38 1012.77 1013.42 1014.26 1015.19 1016.09 1016.83 1017.32 1017.53 1017.45 1017.15 1016.72 1016.26 1015.84 1015.51 1015.29 1015.14 1015.02 1014.87 1014.66 1014.36 1013.98 1013.54 1013.09 1012.65 1012.27 1011.95 1011.67 1011.42 1011.17 1010.88 1010.56 1010.20 1009.83 1009.50 1009.23 1009.07 1009.03
1011.94 1012.11 1012.07 1011.93 1011.79 1011.79 1012.03 1012.56 1013.36 1014.34 1015.38 1016.35 1017.11 1017.58 1017.74 1017.59 1017.24 1016.77 1016.30 1015.90 1015.62 1015.46 1015.38 1015.33 1015.23 1015.04 1014.75 1014.35 1013.89 1013.40 1012.94 1012.55 1012.23 1011.98 1011.76 1011.55 1011.30 1011.01 1010.67 1010.30 1009.94 1009.63 1009.40 1009.28
1011.93 1011.90 1011.73 1011.52 1011.38 1011.45 1011.81 1012.48 1013.42 1014.53 1015.66 1016.67 1017.42 1017.85 1017.94 1017.72 1017.29 1016.78 1016.30 1015.91 1015.67 1015.56 1015.55 1015.54 1015.49 1015.32 1015.02 1014.60 1014.10 1013.57 1013.08 1012.66 1012.33 1012.08 1011.90 1011.73 1011.54 1011.31 1011.01 1010.68 1010.34 1010.02 1009.77 1009.60
1011.98 1011.80 1011.52 1011.27 1011.18 1011.34 1011.82 1012.64 1013.71 1014.92 1016.10 1017.12 1017.84 1018.20 1018.20 1017.89 1017.39 1016.83 1016.31 1015.93 1015.71 1015.63 1015.65 1015.67 1015.63 1015.46 1015.14 1014.68 1014.13 1013.55 1013.00 1012.54 1012.20 1011.95 1011.79 1011.67 1011.55 1011.38 1011.17 1010.91 1010.62 1010.34 1010.09 1009.90
1012.18 1011.88 1011.55 1011.31 1011.28 1011.54 1012.15 1013.09 1014.25 1015.52 1016.72 1017.70 1018.36 1018.63 1018.54 1018.14 1017.57 1016.95 1016.39 1015.99 1015.76 1015.68 1015.69 1015.71 1015.65 1015.45 1015.09 1014.59 1013.98 1013.34 1012.74 1012.24 1011.86 1011.61 1011.47 1011.38 1011.32 1011.24 1011.11 1010.93 1010.72 1010.50 1010.29 1010.11
1012.55 1012.19 1011.86 1011.66 1011.71 1012.08 1012.78 1013.80 1015.01 1016.28 1017.44 1018.36 1018.93 1019.11 1018.92 1018.44 1017.80 1017.12 1016.53 1016.09 1015.83 1015.73 1015.71 1015.69 1015.58 1015.33 1014.92 1014.36 1013.70 1013.01 1012.36 1011.82 1011.41 1011.14 1011.00 1010.94 1010.92 1010.89 1010.84 1010.75 1010.62 1010.47 1010.32 1010.17
1013.05 1012.71 1012.42 1012.30 1012.44 1012.88 1013.65 1014.68 1015.88 1017.09 1018.17 1018.98 1019.45 1019.53 1019.26 1018.72 1018.03 1017.32 1016.70 1016.23 1015.93 1015.78 1015.70 1015.62 1015.45 1015.15 1014.68 1014.07 1013.37 1012.64 1011.96 1011.39 1010.95 1010.66 1010.50 1010.43 1010.42 1010.42 1010.40 1010.36 1010.29 1010.20 1010.11 1010.01
1013.61 1013.35 1013.16 1013.13 1013.35 1013.85 1014.62 1015.62 1016.73 1017.83 1018.78 1019.46 1019.81 1019.81 1019.48 1018.91 1018.21 1017.50 1016.87 1016.38 1016.05 1015.84 1015.70 1015.54 1015.31 1014.94 1014.44 1013.80 1013.08 1012.35 1011.66 1011.06 1010.60 1010.27 1010.07 1009.96 1009.90 1009.87 1009.85 1009.81 1009.76 1009.70 1009.65 1009.60
1014.14 1014.02 1013.96 1014.05 1014.34 1014.86 1015.59 1016.49 1017.46 1018.40 1019.18 1019.72 1019.95 1019.88 1019.52 1018.96 1018.29 1017.62 1017.01 1016.53 1016.17 1015.91 1015.70 1015.48 1015.18 1014.77 1014.24 1013.61 1012.90 1012.18 1011.50 1010.91 1010.42 1010.04 1009.77 1009.57 1009.43 1009.31 1009.21 1009.12 1009.04 1008.98 1008.94 1008.93
1014.59 1014.64 1014.74 1014.94 1015.29 1015.80 1016.45 1017.21 1018.01 1018.75 1019.34 1019.73 1019.86 1019.74 1019.39 1018.87 1018.27 1017.67 1017.12 1016.66 1016.29 1015.99 1015.72 1015.44 1015.09 1014.65 1014.12 1013.50 1012.83 1012.16 1011.51 1010.92 1010.41 1009.97 1009.61 1009.29 1009.01 1008.76 1008.53 1008.33 1008.18 1008.08 1008.03 1008.04
1014.94 1015.18 1015.44 1015.75 1016.14 1016.61 1017.16 1017.76 1018.35 1018.88 1019.29 1019.53 1019.57 1019.42 1019.11 1018.67 1018.17 1017.66 1017.18 1016.76 1016.39 1016.07 1015.75 1015.41 1015.03 1014.57 1014.04 1013.46 1012.84 1012.22 1011.62 1011.04 1010.51 1010.01 1009.53 1009.08 1008.64 1008.22 1007.83 1007.50 1007.24 1007.07 1006.99 1007.00
1015.22 1015.65 1016.06 1016.46 1016.87 1017.29 1017.72 1018.14 1018.53 1018.85 1019.08 1019.19 1019.16 1019.01 1018.75 1018.40 1018.01 1017.61 1017.21 1016.83 1016.47 1016.12 1015.76 1015.38 1014.95 1014.47 1013.96 1013.42 1012.86 1012.29 1011.73 1011.18 1010.62 1010.05 1009.47 1008.87 1008.27 1007.67 1007.13 1006.65 1006.28 1006.03 1005.91 1005.92
1015.51 1016.08 1016.60 1017.07 1017.47 1017.83 1018.13 1018.38 1018.58 1018.72 1018.79 1018.79 1018.72 1018.57 1018.37 1018.12 1017.83 1017.53 1017.21 1016.87 1016.51 1016.13 1015.73 1015.29 1014.82 1014.32 1013.82 1013.30 1012.79 1012.28 1011.75 1011.21 1010.63 1010.01 1009.33 1008.61 1007.86 1007.12 1006.42 1005.82 1005.35 1005.03 1004.88 1004.88
1015.87 1016.52 1017.10 1017.59 1017.96 1018.24 1018.43 1018.53 1018.56 1018.55 1018.49 1018.40 1018.29 1018.16 1018.02 1017.85 1017.66 1017.43 1017.17 1016.85 1016.49 1016.07 1015.61 1015.11 1014.59 1014.07 1013.56 1013.06 1012.57 1012.09 1011.60 1011.07 1010.47 1009.80 1009.06 1008.24 1007.39 1006.53 1005.74 1005.05 1004.51 1004.14 1003.97 1003.97
1016.31 1016.98 1017.56 1018.02 1018.35 1018.54 1018.61 1018.58 1018.49 1018.35 1018.19 1018.05 1017.92 1017.81 1017.71 1017.60 1017.48 1017.31 1017.08 1016.77 1016.38 1015.92 1015.40 1014.83 1014.26 1013.69 1013.15 1012.65 1012.18 1011.71 1011.23 1010.70 1010.10 1009.40 1008.62 1007.75 1006.84 1005.93 1005.08 1004.35 1003.78 1003.40 1003.22 1003.22
1016.81 1017.44 1017.96 1018.35 1018.59 1018.69 1018.66 1018.53 1018.33 1018.11 1017.90 1017.72 1017.58 1017.49 1017.42 1017.36 1017.28 1017.14 1016.92 1016.60 1016.18 1015.67 1015.08 1014.46 1013.82 1013.20 1012.63 1012.10 1011.61 1011.14 1010.66 1010.13 1009.52 1008.82 1008.02 1007.14 1006.22 1005.31 1004.46 1003.73 1003.17 1002.80 1002.63 1002.64
1017.31 1017.82 1018.23 1018.51 1018.65 1018.66 1018.54 1018.34 1018.08 1017.82 1017.58 1017.38 1017.25 1017.17 1017.13 1017.10 1017.04 1016.91 1016.69 1016.35 1015.90 1015.34 1014.70 1014.01 1013.31 1012.64 1012.02 1011.45 1010.93 1010.44 1009.94 1009.40 1008.80 1008.10 1007.32 1006.46 1005.58 1004.70 1003.89 1003.20 1002.67 1002.32 1002.16 1002.18
1017.69 1018.05 1018.31 1018.47 1018.50 1018.42 1018.23 1017.98 1017.70 1017.42 1017.18 1017.00 1016.88 1016.82 1016.81 1016.79 1016.74 1016.62 1016.39 1016.03 1015.55 1014.96 1014.27 1013.53 1012.79 1012.06 1011.39 1010.77 1010.21 1009.69 1009.17 1008.62 1008.01 1007.33 1006.58 1005.77 1004.94 1004.12 1003.37 1002.74 1002.25 1001.93 1001.78 1001.78
1017.87 1018.05 1018.16 1018.18 1018.10 1017.95 1017.72 1017.46 1017.18 1016.92 1016.71 1016.55 1016.47 1016.44 1016.44 1016.44 1016.39 1016.27 1016.03 1015.67 1015.17 1014.56 1013.85 1013.08 1012.30 1011.53 1010.81 1010.15 1009.54 1008.97 1008.41 1007.85 1007.24 1006.58 1005.87 1005.12 1004.35 1003.60 1002.92 1002.33 1001.88 1001.58 1001.42 1001.40
1017.77 1017.79 1017.75 1017.64 1017.48 1017.27 1017.03 1016.78 1016.54 1016.32 1016.16 1016.06 1016.01 1016.01 1016.04 1016.05 1016.01 1015.89 1015.65 1015.29 1014.79 1014.18 1013.46 1012.68 1011.87 1011.08 1010.32 1009.61 1008.95 1008.33 1007.74 1007.16 1006.55 1005.91 1005.24 1004.54 1003.84 1003.16 1002.53 1001.99 1001.56 1001.25 1001.07 1001.01
1017.39 1017.26 1017.09 1016.90 1016.68 1016.45 1016.23 1016.01 1015.83 1015.69 1015.59 1015.55 1015.55 1015.58 1015.62 1015.65 1015.62 1015.50 1015.27 1014.92 1014.44 1013.83 1013.12 1012.34 1011.53 1010.71 1009.92 1009.17 1008.47 1007.81 1007.18 1006.58 1005.97 1005.35 1004.72 1004.07 1003.42 1002.80 1002.22 1001.70 1001.28 1000.96 1000.74 1000.63
1016.75 1016.51 1016.26 1016.00 1015.77 1015.55 1015.37 1015.23 1015.12 1015.06 1015.04 1015.06 1015.11 1015.18 1015.24 1015.27 1015.24 1015.13 1014.91 1014.57 1014.11 1013.52 1012.83 1012.06 1011.25 1010.42 1009.61 1008.82 1008.08 1007.38 1006.73 1006.10 1005.49 1004.90 1004.30 1003.70 1003.10 1002.53 1001.98 1001.49 1001.06 1000.71 1000.45 1000.29
1015.92 1015.61 1015.31 1015.05 1014.83 1014.66 1014.55 1014.49 1014.48 1014.51 1014.57 1014.65 1014.74 1014.83 1014.90 1014.93 1014.90 1014.79 1014.57 1014.24 1013.80 1013.23 1012.56 1011.81 1011.01 1010.17 1009.34 1008.52 1007.75 1007.02 1006.34 1005.70 1005.10 1004.52 1003.96 1003.41 1002.87 1002.34 1001.83 1001.35 1000.92 1000.55 1000.25 1000.03
1014.97 1014.63 1014.33 1014.09 1013.93 1013.84 1013.82 1013.86 1013.95 1014.06 1014.19 1014.33 1014.45 1014.55 1014.62 1014.64 1014.60 1014.47 1014.25 1013.93 1013.49 1012.94 1012.29 1011.55 1010.75 1009.92 1009.07 1008.24 1007.44 1006.69 1005.99 1005.35 1004.75 1004.20 1003.68 1003.18 1002.69 1002.21 1001.74 1001.29 1000.87 1000.49 1000.16 999.90
Thickness
5770 5754 5745 5750 5753 5755 5752 5746 5740 5737 5738 5730 5720 5716 5720 5727 5730 5730 5729 5729 5728 5726 5727 5727 5726 5726 5724 5722 5721 5719 5717 5716 5717 5716 5713 5711 5710 5710 5710 5710 5711 5713 5715 5717
5750 5748 5761 5766 5765 5757 5750 5744 5738 5732 5733 5725 5713 5710 5715 5718 5719 5719 5718 5718 5716 5715 5716 5716 5715 5712 5710 5709 5710 5709 5708 5707 5708 5708 5707 5706 5706 5706 5706 5706 5709 5711 5712 5713
5748 5756 5769 5765 5761 5757 5753 5749 5744 5731 5723 5719 5712 5701 5704 5708 5710 5710 5709 5708 5707 5706 5702 5701 5701 5699 5697 5697 5697 5698 5698 5698 5698 5699 5700 5701 5701 5701 5700 5700 5702 5704 5706 5707
5750 5762 5763 5760 5758 5759 5746 5759 5755 5742 5719 5704 5709 5687 5694 5696 5695 5697 5696 5696 5694 5693 5691 5689 5688 5688 5688 5688 5689 5689 5688 5689 5689 5690 5690 5690 5688 5688 5689 5691 5693 5695 5697 5700
5745 5756 5756 5755 5760 5763 5757 5757 5749 5739 5722 5704 5703 5690 5687 5690 5686 5687 5688 5688 5687 5686 5684 5683 5681 5681 5682 5682 5681 5680 5679 5679 5680 5680 5680 5680 5679 5680 5681 5683 5685 5687 5688 5689
5750 5762 5762 5761 5767 5767 5762 5749 5736 5721 5710 5694 5695 5692 5684 5684 5685 5684 5684 5683 5682 5681 5679 5678 5677 5675 5674 5675 5673 5672 5670 5669 5669 5668 5668 5668 5668 5669 5670 5672 5673 5674 5676 5677
5739 5753 5763 5767 5757 5757 5749 5727 5703 5699 5686 5686 5694 5688 5685 5691 5690 5686 5682 5680 5679 5676 5673 5671 5669 5667 5666 5666 5665 5663 5660 5658 5657 5656 5655 5654 5655 5655 5656 5658 5659 5660 5662 5664
5721 5724 5749 5758 5752 5745 5740 5726 5698 5687 5680 5679 5686 5682 5682 5689 5688 5685 5681 5677 5674 5670 5667 5665 5663 5661 5659 5658 5656 5653 5651 5649 5647 5645 5643 5641 5640 5640 5641 5643 5644 5645 5647 5650
5721 5723 5748 5756 5756 5750 5734 5715 5712 5689 5683 5672 5675 5681 5683 5682 5678 5675 5672 5668 5664 5662 5660 5657 5655 5653 5650 5648 5647 5644 5641 5638 5636 5634 5632 5629 5628 5626 5626 5627 5628 5630 5632 5635
5734 5722 5733 5745 5749 5742 5733 5716 5697 5684 5671 5663 5669 5668 5660 5665 5664 5663 5660 5656 5654 5651 5649 5647 5643 5639 5636 5633 5631 5630 5628 5625 5624 5622 5620 5619 5617 5615 5614 5612 5612 5613 5616 5618
5734 5716 5718 5726 5717 5711 5716 5707 5688 5673 5671 5659 5653 5654 5660 5657 5656 5653 5651 5648 5644 5641 5637 5633 5628 5624 5620 5617 5615 5613 5612 5612 5611 5610 5609 5606 5605 5603 5601 5599 5598 5598 5599 5600
5726 5708 5699 5710 5720 5721 5711 5698 5688 5675 5665 5657 5646 5645 5657 5653 5650 5648 5644 5640 5636 5630 5625 5621 5616 5611 5608 5605 5602 5600 5599 5598 5598 5597 5596 5594 5592 5589 5586 5585 5584 5583 5583 5584
5725 5704 5686 5689 5697 5704 5698 5693 5682 5669 5655 5649 5641 5645 5652 5648 5645 5641 5635 5631 5627 5622 5617 5612 5607 5602 5597 5594 5591 5589 5587 5585 5584 5582 5580 5578 5577 5574 5572 5571 5570 5568 5567 5568
5726 5699 5689 5684 5686 5691 5687 5684 5681 5668 5649 5647 5647 5647 5648 5643 5637 5634 5630 5626 5620 5614 5608 5602 5597 5592 5587 5584 5580 5577 5575 5571 5568 5565 5562 5560 5559 5558 5558 5557 5555 5554 5553 5552
5720 5697 5695 5694 5697 5693 5685 5681 5678 5670 5663 5649 5648 5646 5645 5640 5633 5629 5625 5620 5613 5606 5601 5595 5589 5584 5579 5575 5571 5567 5563 5558 5553 5548 5544 5541 5540 5539 5538 5538 5537 5537 5537 5539
5710 5698 5696 5689 5690 5686 5678 5677 5675 5669 5664 5656 5649 5643 5646 5638 5628 5621 5617 5611 5604 5598 5594 5589 5584 5578 5573 5568 5563 5558 5551 5545 5538 5532 5527 5523 5520 5518 5518 5518 5518 5519 5521 5523
5701 5694 5683 5676 5683 5679 5667 5672 5670 5665 5660 5652 5640 5640 5640 5632 5623 5617 5613 5606 5598 5593 5588 5582 5577 5571 5566 5560 5555 5548 5541 5534 5526 5518 5513 5508 5503 5500 5498 5498 5500 5502 5504 5507
5702 5686 5673 5670 5673 5664 5669 5681 5676 5666 5658 5652 5645 5639 5634 5627 5622 5613 5607 5598 5592 5586 5582 5576 5570 5565 5560 5554 5548 5540 5533 5524 5516 5509 5502 5495 5489 5485 5482 5480 5483 5486 5489 5493
5706 5691 5673 5662 5663 5665 5672 5677 5671 5659 5650 5651 5643 5636 5630 5626 5617 5611 5608 5599 5589 5582 5575 5569 5564 5560 5555 5549 5542 5535 5527 5517 5508 5500 5493 5485 5479 5473 5469 5468 5469 5472 5475 5480
5698 5689 5673 5661 5662 5656 5668 5679 5675 5659 5646 5650 5642 5633 5625 5616 5604 5605 5604 5593 5585 5577 5570 5565 5561 5556 5551 5546 5539 5530 5522 5513 5503 5495 5486 5478 5470 5465 5461 5459 5459 5461 5465 5470
5691 5677 5667 5660 5657 5662 5677 5678 5668 5646 5646 5650 5641 5633 5623 5609 5601 5600 5594 5586 5578 5572 5567 5562 5558 5554 5550 5544 5536 5527 5518 5509 5500 5491 5482 5473 5465 5459 5456 5454 5453 5455 5459 5464
5683 5672 5663 5652 5654 5660 5680 5670 5659 5656 5656 5649 5642 5633 5623 5613 5605 5597 5590 5582 5576 5570 5566 5561 5556 5553 5548 5542 5533 5524 5516 5507 5497 5488 5479 5471 5463 5457 5455 5451 5450 5451 5455 5460
5683 5680 5671 5667 5669 5678 5678 5673 5670 5660 5652 5648 5639 5631 5621 5612 5602 5594 5586 5579 5573 5568 5564 5559 5555 5551 5547 5540 5531 5522 5515 5506 5497 5488 5479 5470 5463 5457 5453 5451 5450 5451 5454 5458
5689 5681 5675 5672 5676 5678 5677 5674 5670 5661 5652 5647 5638 5628 5619 5608 5599 5589 5582 5577 5572 5567 5563 5558 5553 5550 5546 5539 5531 5522 5514 5505 5497 5488 5480 5471 5464 5459 5455 5452 5452 5453 5454 5457
5692 5682 5675 5673 5678 5677 5674 5670 5666 5659 5652 5643 5634 5625 5616 5606 5596 5588 5581 5576 5571 5567 5561 5556 5551 5548 5545 5540 5532 5524 5515 5507 5499 5491 5482 5474 5468 5462 5459 5456 5455 5456 5457 5459
5688 5684 5677 5676 5682 5674 5672 5671 5664 5655 5647 5639 5630 5622 5613 5604 5595 5588 5581 5576 5570 5565 5560 5555 5551 5548 5544 5540 5534 5526 5518 5509 5501 5494 5486 5478 5471 5466 5462 5460 5459 5459 5460 5462